Temp
15 15 15 15 15 15 16 15 13 13 14 15 15 15 15 15 15 15 16 17 16 16 16 16 16 16 15 15 15 15 15 15 15 15 15 15 15 15 15 15 15 15 14
15 15 15 15 15 15 15 13 14 14 13 13 14 13 14 14 14 14 15 15 15 15 15 15 15 15 15 15 15 15 15 14 14 14 14 14 14 14 14 14 14 14 14
14 15 15 14 14 14 13 14 13 13 13 11 11 12 13 13 13 13 14 14 14 15 16 15 15 15 15 15 15 14 14 14 14 14 13 13 13 13 14 13 13 14 13
14 14 14 14 13 12 12 14 13 11 11 11 11 11 12 13 12 13 13 14 13 13 15 15 15 14 14 14 14 14 13 13 13 13 13 12 12 12 12 12 12 12 13
14 14 14 12 12 12 13 13 13 12 11 10 10 11 11 11 11 12 13 13 13 13 14 14 14 14 14 14 13 13 12 12 12 11 11 11 11 11 11 11 11 11 11
14 14 13 12 13 13 13 13 12 12 11 10 9 9 9 9 10 11 11 12 12 13 13 13 13 13 13 13 12 12 12 11 11 10 10 10 10 10 10 10 10 10 10
13 13 12 12 13 13 13 12 12 11 10 11 11 9 9 9 9 10 10 11 11 12 12 12 12 12 12 11 11 11 11 11 10 10 10 10 9 9 9 9 9 9 9
13 13 12 12 12 12 12 12 11 11 10 12 13 11 9 9 9 8 9 10 10 10 11 11 11 11 11 10 10 10 10 11 10 10 9 9 9 9 9 9 8 8 8
12 12 12 12 12 12 12 11 11 11 11 11 13 15 13 12 7 7 8 8 9 9 10 10 10 10 10 10 10 10 10 10 10 10 9 9 9 9 9 8 8 7 7
12 12 12 12 12 12 12 11 11 12 11 11 11 12 13 13 13 8 7 7 7 8 8 9 9 9 9 8 8 8 8 8 9 9 9 9 8 8 8 7 7 7 6
12 12 12 12 12 12 12 12 12 12 12 12 12 10 11 13 14 12 9 7 6 6 6 7 7 7 7 7 7 7 7 7 7 7 8 8 8 8 8 7 7 6 6
12 11 11 11 12 12 12 12 12 12 12 12 12 13 12 13 12 12 11 8 7 5 5 5 6 6 6 6 6 6 6 6 6 6 6 6 7 7 7 6 6 5 5
11 12 11 11 11 11 11 11 11 12 12 12 13 13 13 13 12 12 10 9 7 5 4 4 4 5 4 5 5 5 6 5 5 5 5 5 5 5 5 5 5 4 4
12 11 11 11 11 11 11 11 11 11 12 12 13 13 12 13 12 11 9 8 6 6 5 4 3 3 3 3 4 4 4 3 3 4 4 3 3 3 3 3 3 2 2
11 11 11 11 10 10 10 10 10 11 11 12 12 12 12 12 11 10 10 10 8 6 6 4 3 2 3 2 3 3 2 2 2 2 2 2 2 2 1 1 1 1 1
10 11 10 10 10 9 9 9 9 10 11 11 11 11 11 12 10 10 10 9 10 10 6 4 4 2 2 2 2 2 2 1 1 1 1 1 1 1 0 0 0 0 0
9 9 9 8 9 8 8 8 8 9 10 10 10 10 10 10 9 9 9 9 9 9 4 3 2 1 1 1 2 1 1 1 0 0 0 0 -0 -0 -0 0 0 0 -0
11 10 9 9 9 8 7 7 7 8 8 8 9 8 8 9 8 8 8 8 8 8 7 2 1 1 1 1 1 1 1 1 0 -0 -1 -1 -0 -0 0 1 0 0 -1
8 9 7 8 8 9 11 9 10 9 8 7 7 7 8 8 7 6 7 6 6 5 6 3 1 0 0 0 0 0 0 1 -0 -1 -0 -0 0 0 0 0 0 0 -0
8 8 8 9 7 8 8 7 8 7 7 6 7 6 5 5 5 7 6 6 6 5 4 2 1 0 -0 -0 -0 -0 -0 -0 -1 -1 -1 -1 -0 -0 -0 -0 -1 -1 -1
7 7 8 7 7 7 8 7 6 6 6 5 3 4 3 2 4 4 5 5 4 4 3 1 1 -0 -0 -1 -0 -0 -0 -0 -1 -1 -1 -1 -1 -2 -2 -2 -2 -2 -2
5 5 5 6 6 6 6 5 5 5 4 4 3 2 1 2 2 3 4 4 4 3 3 1 1 0 -0 -1 0 0 0 -1 -1 -1 -1 -1 -1 -2 -2 -3 -2 -2 -3
4 4 4 4 4 5 4 4 4 3 3 2 1 1 0 0 1 1 1 2 2 2 2 1 1 1 0 -0 0 -0 -0 -0 0 -2 -1 -1 -1 -2 -2 -3 -3 -3 -4
2 3 3 3 3 3 1 0 2 2 1 1 0 -0 -0 -1 -0 0 0 -0 -0 0 -1 -1 -0 1 0 -0 -0 -1 -1 -1 -1 -2 -2 -2 -2 -2 -2 -3 -3 -4 -5
0 1 1 1 1 1 -0 -1 0 0 -0 -1 -1 -1 -1 -2 -2 -1 -0 -1 -2 -3 -2 -1 -0 -0 -1 -1 -1 -1 -2 -2 -2 -2 -3 -3 -3 -4 -3 -4 -4 -4 -5
-1 -1 -1 -0 0 -0 -1 -2 -0 -1 -3 -3 -3 -2 -2 -1 -2 -2 -2 -3 -3 -3 -2 -2 -3 -3 -3 -3 -3 -2 -2 -2 -2 -3 -4 -4 -4 -5 -4 -4 -4 -5 -5
Height
840 843 849 854 857 861 864 867 869 871 872 874 875 877 878 881 883 884 883 883 886 888 887 887 889 889 892 894 895 896 897 898 899 900 900 901 901 901 901 902 902 899 901
839 843 850 855 858 862 864 867 869 872 875 878 878 880 882 883 886 885 884 886 887 888 889 888 890 891 893 896 897 898 899 901 902 903 904 904 905 904 905 905 906 905 905
839 844 850 855 859 863 864 867 871 874 879 881 882 883 884 885 887 888 888 887 889 889 890 891 891 892 895 897 899 901 903 904 906 907 908 908 908 908 909 908 907 908 909
841 845 850 854 858 861 864 868 872 875 880 882 885 886 888 888 891 891 892 892 892 891 891 892 896 896 898 900 901 903 906 908 910 910 911 911 911 911 911 911 911 910 912
842 845 850 853 857 861 866 870 874 877 880 884 886 888 891 892 894 897 896 896 895 893 894 896 897 902 903 904 906 908 909 911 911 912 913 914 914 914 913 913 914 913 915
841 845 849 853 857 861 866 870 874 878 882 884 888 892 895 897 899 899 900 900 899 898 900 901 903 907 910 911 913 915 915 916 916 915 915 916 917 916 917 916 917 917 917
839 844 848 853 858 861 865 870 874 877 883 886 887 896 900 902 902 904 905 904 905 906 907 906 908 911 912 915 918 919 920 920 918 918 918 919 919 920 920 920 921 921 920
837 842 846 851 856 860 864 869 872 877 882 885 889 893 902 908 907 908 909 910 911 911 911 912 914 915 917 920 920 921 922 923 922 922 922 922 923 923 923 923 923 923 923
835 840 844 849 854 857 862 867 871 875 879 884 888 888 896 900 909 912 912 912 913 913 915 916 917 918 920 922 924 925 925 926 925 925 926 927 926 926 926 926 926 926 926
834 838 843 848 852 856 860 865 870 874 876 880 885 886 888 889 898 912 914 915 915 916 917 918 919 921 922 925 926 927 928 928 928 929 929 929 928 928 929 929 929 929 928
832 837 841 846 849 854 858 863 867 872 875 878 881 885 888 890 893 899 910 915 916 918 919 920 921 922 924 925 927 928 930 930 930 931 931 931 930 930 930 930 931 931 930
829 835 839 843 847 851 854 860 865 869 873 876 879 882 884 888 891 894 902 912 915 920 920 921 922 923 925 926 928 929 930 931 932 932 932 932 932 932 932 932 932 932 932
823 828 833 838 843 849 853 857 862 866 869 873 876 880 883 885 888 892 896 905 912 919 921 922 922 924 925 926 928 929 930 932 932 933 933 933 932 932 933 933 933 933 933
815 823 829 834 840 845 850 855 860 863 866 871 874 878 881 883 886 889 892 898 910 915 918 919 921 923 924 925 927 928 929 930 931 933 933 933 933 932 932 933 933 932 932
811 818 824 830 836 840 846 851 855 857 863 867 872 876 879 882 885 887 889 893 896 908 913 917 919 921 921 924 926 929 928 929 929 931 932 933 933 933 933 933 934 933 933
806 812 818 824 829 835 839 845 850 855 859 864 869 873 876 880 883 885 887 891 894 895 905 910 914 917 920 922 924 926 927 929 930 931 931 931 933 933 933 934 933 934 933
803 810 813 820 825 829 836 840 846 851 855 860 865 870 874 878 881 883 885 887 890 893 898 907 911 914 917 919 922 925 928 929 930 931 932 932 932 932 932 933 933 933 933
793 802 809 818 819 825 837 838 844 848 850 857 861 866 871 875 880 882 883 885 887 889 891 899 907 911 914 917 920 922 925 929 929 931 931 931 931 931 931 932 932 932 933
797 798 807 808 819 822 822 830 836 840 847 853 855 863 865 872 878 881 882 884 887 889 889 892 900 909 913 916 919 920 923 926 927 929 929 929 930 930 930 931 931 931 930
790 795 800 804 813 817 819 829 828 838 841 847 851 859 863 867 874 875 881 880 886 890 892 893 898 906 910 914 917 919 922 923 925 927 927 928 928 929 930 929 930 930 929
787 791 795 802 808 813 817 822 830 837 838 844 849 852 860 866 872 876 876 878 883 888 892 894 899 905 908 911 913 917 920 922 924 925 926 926 926 928 928 928 929 928 927
785 790 795 799 804 811 817 822 827 831 837 841 844 850 858 863 868 872 876 877 881 885 890 895 898 903 906 909 911 914 918 918 922 922 924 925 925 927 926 927 926 926 926
781 786 794 798 802 808 814 819 824 830 834 839 843 848 855 861 865 869 873 876 879 882 887 893 897 899 903 906 909 912 915 916 918 920 921 923 923 924 925 925 924 924 924
775 782 787 795 800 807 812 818 821 828 832 836 842 849 853 857 862 867 869 875 880 883 887 892 896 898 901 905 907 911 914 916 917 919 920 920 921 922 923 922 922 922 922
775 779 785 792 797 804 809 815 819 825 830 836 843 848 853 859 863 867 869 873 878 884 890 892 895 896 901 904 905 908 912 915 917 917 918 919 919 920 921 920 919 919 919
774 780 784 790 795 802 808 812 817 822 829 836 842 848 854 860 863 865 868 873 879 884 887 891 895 898 899 904 906 907 910 912 913 915 917 919 919 920 919 917 917 917 917
Wind_Speed
23 25 21 16 18 19 17 16 16 17 18 18 17 17 17 14 12 13 13 12 9 8 8 11 13 16 19 20 21 21 21 21 21 23 24 24 24 26 28 28 27 29 26
21 24 26 19 20 18 18 17 23 23 21 18 19 19 17 18 16 16 15 11 8 7 7 12 15 17 19 20 21 21 24 28 27 27 27 26 25 25 24 23 23 25 26
20 29 23 20 19 18 20 26 24 24 21 18 20 22 23 22 20 19 19 16 8 5 10 13 17 18 20 21 25 28 27 26 25 25 25 24 24 22 20 21 22 22 22
23 22 22 22 21 22 25 28 23 21 20 20 23 25 25 26 24 24 25 24 25 26 19 19 14 21 25 27 27 26 26 25 23 21 21 22 23 23 23 23 22 21 18
21 21 21 22 25 28 25 21 20 20 21 21 23 23 23 25 23 23 28 31 34 36 34 32 34 31 30 29 27 26 26 24 23 21 21 20 20 20 21 21 18 17 16
21 21 21 26 28 25 22 21 22 19 21 26 24 24 21 22 21 22 22 24 30 36 38 38 37 33 29 25 24 23 23 21 20 20 21 21 21 21 21 21 20 18 19
22 21 24 26 24 24 23 23 24 26 23 29 27 25 22 18 20 19 19 21 22 26 29 31 31 29 27 25 21 19 19 19 20 20 21 20 20 20 21 21 20 18 19
25 23 27 27 25 25 25 25 27 25 24 22 11 13 3 6 13 14 14 16 18 19 22 23 26 27 25 22 21 21 19 18 19 19 19 18 18 18 19 19 18 18 17
27 25 28 28 27 27 29 28 27 28 18 17 20 5 4 3 6 7 9 11 13 16 17 19 20 20 19 18 16 16 18 17 17 17 16 15 16 16 17 17 16 17 17
25 26 28 28 27 27 29 29 27 21 24 22 16 7 5 12 3 3 4 6 8 11 13 14 15 16 17 14 13 14 15 16 15 14 14 13 14 15 14 15 15 15 16
27 27 28 28 29 28 29 29 28 20 21 23 14 12 7 8 10 6 3 7 6 6 8 10 12 13 13 15 15 13 13 12 12 12 12 12 13 13 13 12 13 13 14
29 26 27 26 28 27 30 31 30 24 20 18 17 13 13 7 11 6 4 9 10 5 4 7 9 11 11 11 13 13 8 9 11 11 11 12 12 12 12 11 12 12 12
38 36 35 31 30 25 28 30 30 26 25 23 23 15 12 11 13 10 17 11 6 6 4 5 6 8 8 8 10 9 7 11 11 11 11 12 12 13 12 11 11 10 10
44 37 37 35 32 31 29 29 29 27 26 23 22 17 13 10 13 16 14 19 5 3 6 8 8 9 10 10 9 7 11 11 11 11 11 11 11 11 12 11 10 10 10
41 42 40 36 32 32 30 28 28 32 27 25 22 17 13 11 12 14 14 21 15 4 3 10 7 11 11 12 13 8 7 9 9 9 10 10 10 10 10 9 9 9 9
38 41 39 40 37 33 33 31 30 29 28 24 21 18 16 14 13 14 14 18 11 10 4 8 10 16 14 12 15 12 9 9 10 11 10 9 9 9 8 7 8 7 8
37 37 38 36 36 35 31 30 29 29 27 25 22 19 16 16 15 14 16 16 14 12 14 8 13 17 16 14 16 12 11 7 10 9 10 10 9 7 6 5 5 5 6
34 30 32 31 20 23 22 23 25 27 26 25 23 20 18 16 15 15 15 15 15 14 14 22 18 19 17 15 15 14 13 9 8 10 9 7 6 4 3 3 3 3 4
35 31 31 31 36 35 28 31 30 27 26 24 21 22 19 17 17 15 15 15 13 11 15 18 17 19 19 18 17 14 14 12 11 11 5 3 2 1 1 2 3 3 3
32 33 30 28 31 31 31 35 33 33 32 29 27 24 20 19 18 17 15 15 13 12 10 19 22 21 20 19 17 18 15 13 11 8 8 5 2 2 3 3 4 4 4
31 32 33 33 31 31 32 31 33 33 30 27 24 22 19 18 17 16 16 15 14 14 15 18 18 19 18 22 21 17 15 14 9 7 6 4 2 1 4 3 4 5 5
30 31 32 33 32 30 28 29 30 29 29 28 27 24 22 21 18 15 15 15 15 16 17 17 16 18 18 20 19 20 17 16 5 9 7 6 5 4 5 4 8 7 3
32 31 31 31 30 28 27 27 28 28 29 28 27 27 24 22 21 19 16 16 15 15 15 16 16 19 19 21 20 18 16 14 6 7 8 5 6 3 6 5 9 4 5
36 34 31 30 29 26 25 24 26 27 26 26 26 27 27 26 24 24 22 16 13 13 13 13 17 16 18 18 18 16 14 12 9 5 6 2 5 3 7 6 10 6 8
31 30 31 30 28 27 26 26 25 26 25 26 26 25 25 25 22 19 20 21 17 13 12 12 16 15 15 17 18 18 16 12 7 6 3 4 3 5 8 8 7 6 10
25 27 27 27 27 29 28 27 27 29 27 26 25 25 23 20 20 21 22 21 20 17 17 17 16 16 16 14 12 11 12 10 6 5 7 4 2 3 3 4 6 6 6
Wind_Direction
142 150 149 137 137 134 131 124 116 114 115 114 112 111 111 100 99 102 98 112 132 138 150 140 133 124 117 112 108 108 102 96 94 89 86 85 83 79 77 73 68 67 71
159 161 146 137 138 136 132 129 129 121 107 104 109 105 101 105 97 91 96 123 142 168 166 151 142 132 123 115 110 108 101 97 93 90 86 83 81 77 72 68 62 59 63
158 155 144 143 140 141 135 136 127 123 108 103 98 102 104 97 91 89 92 99 107 171 166 144 131 125 120 114 109 102 100 98 94 90 86 82 77 75 72 65 63 63 58
153 152 148 150 149 145 140 142 135 127 116 110 106 99 99 98 90 92 87 91 86 86 111 113 118 115 114 112 105 103 99 95 93 90 82 76 76 72 70 69 67 70 66
157 153 152 158 151 142 140 137 131 126 116 117 108 105 102 96 90 92 92 88 88 93 100 106 102 104 102 103 101 100 96 92 88 84 78 72 69 67 66 66 67 68 70
161 157 158 154 149 146 146 143 136 130 124 125 112 103 97 95 92 88 89 89 91 93 99 99 100 96 94 93 90 90 89 87 86 81 79 75 70 68 67 65 66 65 64
166 163 160 156 157 154 151 148 141 136 130 134 115 97 80 85 89 85 86 88 95 98 105 109 106 105 107 102 93 89 87 85 83 81 80 76 73 71 70 69 69 66 64
171 169 166 163 161 156 154 155 151 141 142 140 143 120 118 75 75 80 89 94 99 100 103 107 109 104 106 105 103 97 88 84 83 83 81 78 76 74 73 73 70 67 65
176 174 173 169 166 164 162 164 160 153 154 172 159 141 152 146 127 70 81 93 98 102 109 108 110 111 108 107 104 102 98 91 85 84 84 83 81 78 79 72 67 66 63
179 177 176 174 173 172 172 171 171 169 168 163 175 174 131 141 153 137 87 90 103 108 111 119 123 119 116 107 112 105 102 86 84 85 83 81 79 80 78 72 70 61 60
185 182 179 178 182 180 182 178 178 180 175 176 173 153 124 120 132 138 142 150 114 113 121 122 124 124 123 123 121 112 97 87 87 86 85 85 84 84 82 75 67 64 59
185 188 185 187 186 185 186 188 186 187 175 187 185 167 161 156 172 141 115 150 135 126 140 146 136 133 127 131 130 127 112 97 95 89 88 89 89 88 86 79 71 65 61
191 196 195 190 189 185 192 193 191 189 191 189 188 174 170 160 166 156 137 142 140 151 148 157 169 160 142 152 147 137 145 116 100 92 93 93 92 91 86 80 74 68 61
199 198 201 200 199 195 196 198 195 194 197 191 185 182 173 178 171 167 158 149 117 138 171 166 173 173 159 168 159 139 144 130 112 102 102 96 92 90 85 83 76 70 64
199 202 204 200 197 198 199 196 196 201 195 193 193 188 186 190 182 184 187 179 146 153 167 181 164 177 176 152 140 144 146 128 117 112 108 104 97 89 86 77 69 64 59
199 200 201 200 197 195 197 198 201 199 194 193 195 191 191 204 196 194 184 181 188 158 128 159 182 175 167 172 152 158 147 129 116 119 117 111 105 99 90 79 72 63 57
204 204 201 199 199 199 200 198 201 195 194 195 195 196 197 203 199 193 187 189 181 178 132 126 167 171 172 170 163 158 135 140 133 125 121 118 115 101 86 73 62 56 51
207 218 213 208 212 211 215 202 200 195 194 195 191 192 198 195 198 196 191 186 184 184 159 146 162 169 171 171 168 161 154 151 156 140 137 130 124 109 77 45 35 35 27
200 199 208 199 203 201 200 213 214 210 207 204 194 199 198 196 198 195 188 179 179 177 170 164 148 166 166 166 163 166 162 151 163 175 165 156 156 195 342 346 335 332 348
204 200 204 206 206 201 197 200 197 203 196 199 198 201 200 195 202 192 192 181 180 168 163 153 148 159 168 172 171 164 165 176 176 185 186 205 226 275 291 312 310 315 333
200 198 196 198 199 198 200 201 200 199 196 194 192 189 190 192 194 195 187 177 171 165 155 150 151 161 170 174 180 179 174 172 181 192 197 216 225 298 298 341 298 313 306
194 194 195 195 196 200 202 203 203 200 198 194 186 182 184 183 186 187 187 176 177 171 167 163 167 175 180 181 178 178 174 165 175 211 187 205 243 217 247 268 284 303 303
190 190 193 194 195 199 202 203 203 201 196 191 187 183 177 180 179 176 176 174 165 165 173 181 181 184 179 180 178 173 180 177 161 181 174 209 243 221 255 269 294 287 184
185 188 189 195 194 193 188 185 196 196 190 187 188 185 183 177 177 174 167 161 172 179 181 195 191 182 178 181 179 177 170 165 170 190 186 183 213 230 255 276 285 214 214
182 187 188 188 189 181 171 168 188 187 184 184 187 187 186 175 167 176 181 172 157 150 157 168 174 167 166 170 171 170 167 159 158 175 227 195 221 259 261 259 260 262 246
173 181 182 186 182 172 168 166 181 180 168 167 173 168 172 186 187 185 174 162 156 156 157 149 140 135 147 149 151 171 166 162 155 166 216 186 215 274 285 250 254 260 281